TimeCST,TemperatureF,Dew PointF,Humidity,Sea Level PressureIn,VisibilityMPH,Wind Direction,Wind SpeedMPH,Gust SpeedMPH,PrecipitationIn,Events,Conditions,WindDirDegrees,DateUTC
12:13 AM,37.4,30.2,75,29.85,10.0,SSE,6.9,-,N/A,,Overcast,160,2012-12-15 06:13:00
12:33 AM,37.4,30.2,75,29.86,10.0,SSE,5.8,-,N/A,,Overcast,160,2012-12-15 06:33:00
12:53 AM,37.4,30.2,75,29.84,10.0,SSE,6.9,-,N/A,,Overcast,150,2012-12-15 06:53:00
1:13 AM,35.6,30.2,81,29.83,10.0,SSE,8.1,-,N/A,,Overcast,150,2012-12-15 07:13:00
1:33 AM,35.6,30.2,81,29.82,10.0,SE,10.4,-,N/A,,Overcast,140,2012-12-15 07:33:00
1:53 AM,35.6,30.2,81,29.82,10.0,SSE,9.2,-,N/A,,Overcast,150,2012-12-15 07:53:00
2:13 AM,33.8,30.2,87,29.82,7.0,SE,9.2,-,N/A,,Overcast,140,2012-12-15 08:13:00
2:33 AM,35.6,30.2,81,29.81,10.0,SSE,4.6,-,N/A,,Overcast,160,2012-12-15 08:33:00
2:53 AM,33.8,30.2,87,29.80,10.0,SSE,6.9,-,N/A,,Overcast,150,2012-12-15 08:53:00
3:14 AM,35.6,30.2,81,29.79,10.0,SE,10.4,-,N/A,,Overcast,140,2012-12-15 09:14:00
3:33 AM,33.8,30.2,87,29.77,10.0,SE,9.2,-,N/A,,Overcast,140,2012-12-15 09:33:00
3:53 AM,33.8,30.2,87,29.77,10.0,SE,8.1,-,N/A,,Overcast,140,2012-12-15 09:53:00
4:14 AM,33.8,30.2,87,29.75,7.0,SE,8.1,-,N/A,,Overcast,140,2012-12-15 10:14:00
4:33 AM,33.8,32.0,93,29.74,7.0,SE,9.2,-,N/A,,Drizzle,140,2012-12-15 10:33:00
4:53 AM,33.8,32.0,93,29.73,5.0,SSE,6.9,-,N/A,,Drizzle,150,2012-12-15 10:53:00
5:14 AM,33.8,32.0,93,29.72,5.0,SSE,3.5,-,N/A,,Light Drizzle,160,2012-12-15 11:14:00
5:33 AM,33.8,32.0,93,29.71,4.0,SSE,5.8,-,N/A,Rain,Light Rain,160,2012-12-15 11:33:00
5:53 AM,33.8,32.0,93,29.69,4.0,SE,6.9,-,0.01,Rain,Light Rain,140,2012-12-15 11:53:00
6:14 AM,33.8,32.0,93,29.67,3.0,SE,8.1,-,0.02,Rain,Light Rain,140,2012-12-15 12:14:00
6:33 AM,33.8,32.0,93,29.66,4.0,SSE,4.6,-,0.04,Rain,Light Rain,160,2012-12-15 12:33:00
6:53 AM,35.6,33.8,93,29.65,3.0,SE,8.1,-,0.06,Rain,Light Rain,140,2012-12-15 12:53:00
7:14 AM,33.8,32.0,93,29.66,2.5,SSE,3.5,-,0.03,Rain,Light Rain,160,2012-12-15 13:14:00
7:33 AM,35.6,33.8,93,29.65,3.0,SE,6.9,-,0.06,Rain,Light Rain,130,2012-12-15 13:33:00
7:53 AM,35.6,33.8,93,29.65,3.0,SSE,5.8,-,0.08,Rain,Light Rain,160,2012-12-15 13:53:00
8:14 AM,35.6,33.8,93,29.64,3.0,ESE,8.1,-,0.03,Rain,Light Rain,120,2012-12-15 14:14:00
8:33 AM,35.6,33.8,93,29.64,4.0,SE,3.5,-,0.05,Rain,Light Rain,140,2012-12-15 14:33:00
8:53 AM,35.6,33.8,93,29.64,2.5,SSE,5.8,-,0.05,Rain,Light Rain,150,2012-12-15 14:53:00
9:14 AM,37.4,35.6,93,29.63,3.0,SE,6.9,-,0.01,Rain,Light Rain,140,2012-12-15 15:14:00
9:33 AM,35.6,33.8,93,29.62,4.0,SE,5.8,-,0.02,Rain,Light Rain,140,2012-12-15 15:33:00
9:53 AM,37.4,35.6,93,29.62,5.0,SE,5.8,-,0.04,Rain,Light Rain,140,2012-12-15 15:53:00
10:13 AM,35.6,33.8,93,29.61,10.0,SE,8.1,-,N/A,,Light Drizzle,130,2012-12-15 16:13:00
10:33 AM,37.4,35.6,93,29.60,10.0,SE,8.1,-,N/A,,Light Drizzle,130,2012-12-15 16:33:00
10:53 AM,37.4,35.6,93,29.59,10.0,SE,8.1,-,N/A,,Overcast,130,2012-12-15 16:53:00
11:14 AM,37.4,35.6,93,29.57,7.0,SE,6.9,-,N/A,,Overcast,130,2012-12-15 17:14:00
11:33 AM,37.4,35.6,93,29.57,10.0,SE,9.2,-,N/A,,Overcast,130,2012-12-15 17:33:00
11:53 AM,37.4,35.6,93,29.56,10.0,SE,5.8,-,N/A,,Overcast,130,2012-12-15 17:53:00
12:12 PM,37.4,35.6,93,29.55,7.0,SE,5.8,-,N/A,,Overcast,140,2012-12-15 18:12:00
12:33 PM,37.4,35.6,93,29.54,2.5,SE,5.8,-,N/A,,Overcast,140,2012-12-15 18:33:00
12:53 PM,37.4,35.6,93,29.53,2.5,SE,4.6,-,N/A,,Overcast,140,2012-12-15 18:53:00
1:13 PM,37.4,35.6,93,29.52,1.8,SSE,4.6,-,N/A,,Overcast,150,2012-12-15 19:13:00
1:33 PM,37.4,35.6,93,29.52,2.0,SSE,4.6,-,N/A,,Overcast,150,2012-12-15 19:33:00
1:53 PM,37.4,35.6,93,29.51,3.0,SE,3.5,-,N/A,,Overcast,140,2012-12-15 19:53:00
2:13 PM,37.4,35.6,93,29.51,2.5,SSE,3.5,-,N/A,,Overcast,150,2012-12-15 20:13:00
2:33 PM,37.4,35.6,93,29.51,1.8,SSE,3.5,-,N/A,,Overcast,160,2012-12-15 20:33:00
2:54 PM,37.4,35.6,93,29.51,1.8,Calm,Calm,-,N/A,,Overcast,0,2012-12-15 20:54:00
3:13 PM,37.4,35.6,93,29.51,1.2,Calm,Calm,-,N/A,,Overcast,0,2012-12-15 21:13:00
3:33 PM,37.4,35.6,93,29.51,1.2,Calm,Calm,-,N/A,,Overcast,0,2012-12-15 21:33:00
3:54 PM,37.4,35.6,93,29.51,1.2,Calm,Calm,-,N/A,,Overcast,0,2012-12-15 21:54:00
4:13 PM,37.4,35.6,93,29.52,2.5,Calm,Calm,-,N/A,,Overcast,0,2012-12-15 22:13:00
4:33 PM,37.4,35.6,93,29.52,3.0,Calm,Calm,-,N/A,,Overcast,0,2012-12-15 22:33:00
4:54 PM,37.4,35.6,93,29.52,2.5,Calm,Calm,-,N/A,,Overcast,0,2012-12-15 22:54:00
5:13 PM,37.4,35.6,93,29.53,1.5,Calm,Calm,-,N/A,,Overcast,0,2012-12-15 23:13:00
5:33 PM,37.4,35.6,93,29.53,0.8,Calm,Calm,-,N/A,,Overcast,0,2012-12-15 23:33:00
5:54 PM,37.4,35.6,93,29.53,0.5,Calm,Calm,-,N/A,Fog,Fog,0,2012-12-15 23:54:00
6:13 PM,37.4,35.6,93,29.53,0.5,Calm,Calm,-,N/A,Fog,Fog,0,2012-12-16 00:13:00
6:33 PM,37.4,35.6,93,29.52,0.5,Calm,Calm,-,N/A,Fog,Fog,0,2012-12-16 00:33:00
6:53 PM,37.4,35.6,93,29.52,0.5,Calm,Calm,-,N/A,Fog,Fog,0,2012-12-16 00:53:00
7:13 PM,37.4,35.6,93,29.52,0.8,Calm,Calm,-,N/A,,Overcast,0,2012-12-16 01:13:00
7:33 PM,37.4,35.6,93,29.53,0.8,Calm,Calm,-,N/A,,Overcast,0,2012-12-16 01:33:00
7:53 PM,37.4,35.6,93,29.53,1.0,Calm,Calm,-,N/A,,Overcast,0,2012-12-16 01:53:00
8:13 PM,37.4,35.6,93,29.52,0.8,Calm,Calm,-,N/A,,Overcast,0,2012-12-16 02:13:00
8:33 PM,37.4,35.6,93,29.52,0.5,Calm,Calm,-,N/A,Fog,Fog,0,2012-12-16 02:33:00
8:53 PM,37.4,35.6,93,29.52,0.5,Calm,Calm,-,N/A,Fog,Fog,0,2012-12-16 02:53:00
9:14 PM,37.4,35.6,93,29.52,0.5,Calm,Calm,-,N/A,Fog,Fog,0,2012-12-16 03:14:00
9:33 PM,37.4,35.6,93,29.52,0.2,Calm,Calm,-,N/A,Fog,Fog,0,2012-12-16 03:33:00
9:53 PM,37.4,35.6,93,29.52,0.5,Calm,Calm,-,N/A,Fog,Fog,0,2012-12-16 03:53:00
10:14 PM,35.6,33.8,93,29.52,0.5,Calm,Calm,-,N/A,Fog,Fog,0,2012-12-16 04:14:00
10:33 PM,35.6,33.8,93,29.51,0.5,Calm,Calm,-,N/A,Fog,Fog,0,2012-12-16 04:33:00
10:53 PM,35.6,33.8,93,29.52,0.8,Calm,Calm,-,N/A,,Overcast,0,2012-12-16 04:53:00
11:14 PM,35.6,33.8,93,29.52,1.2,Calm,Calm,-,N/A,Rain,Rain,0,2012-12-16 05:14:00
11:33 PM,35.6,33.8,93,29.52,1.5,Calm,Calm,-,0.01,Rain,Rain,0,2012-12-16 05:33:00
11:53 PM,35.6,33.8,93,29.52,1.8,Calm,Calm,-,0.02,Rain,Rain,0,2012-12-16 05:53:00